{"data":{"norad_id":62889,"epoch":"2026-05-24T19:58:54.898176Z","epoch_age_seconds":88720,"freshness":"FRESH","line1":"1 62889U 25024L   26144.83257984  .00155365  00000+0  11870-2 0  9992","line2":"2 62889  42.9980  82.3266 0000221 222.1955 137.8896 15.70936283 75441","mean_motion":15.70936283,"eccentricity":2.21e-5,"inclination_deg":42.998,"raan_deg":82.3266,"arg_perigee_deg":222.1955,"mean_anomaly_deg":137.8896,"bstar":0.001187,"rev_number":7544,"period_min":91.66507996429,"perigee_km":356.07105150355,"apogee_km":356.36871007768,"semimajor_km":6734.3568807906,"source":"CELESTRAK","updated_at":"2026-05-25T13:38:19.790369Z"}}